Погода в Ормоке

Филиппины     11°01′20″N   124°36′21″E
темп.,
°C
ветер,
м/с
пор.,
м/с
влажн.,
%
обл.,
%
осадки,
мм/ч
давл.,
гПа
погр.,
м
21 апреля, ср
ср2123:00+26ююз4787100 0.4 1008368
02:00+26ююз4787100 0.6 1007408
05:00+26ююз588599 0.1 1007532
08:00+28ююз578085 0.3 1009854
11:00+29ююз557493 0.5 1009922
14:00+30ю466785 0.8 1006891
17:00+28ююз4877100 0.3 1006276
20:00+28ююз497793 0.3 1008339
22 апреля, чт
чт2223:00+26ююз3685100 0.2 1008295
02:00+26ююз4781100 0.2 1007505
05:00+26ю478279 0.0 1007505
08:00+28ю567597 0.1 1009925
11:00+29ю567056 0.1 10081028
14:00+30ю466539 0.2 1006905
17:00+28ююз487897 0.4 1005305
20:00+27ююз3583100 1.2 1008166
23 апреля, пт
пт2323:00+26юз248496 0.3 1008195
02:00+26ююз2385100 0.6 1007262
05:00+26ююз4685100 0.1 1007387
08:00+28ю4575100 0.2 1009890
11:00+29ююз447098 0.1 10081043
14:00+29ю2272100 0.7 1006662
17:00+27вюв2281100 0.6 1006140
20:00+26всв228498 0.6 100863
24 апреля, сб
сб2423:00+25всв128635 0.9 100891
02:00+24св0192100 3.7 100740
05:00+24ссв1189100 0.8 100885
08:00+27ссв1182100 1.5 1011225
11:00+29ююз026999 1.1 1010753
14:00+29з127078 2.4 1008713
17:00+28ссз237697 0.3 1008441
20:00+25с238486 0.9 101099
25 апреля, вс
вс2523:00+24с228838 2.2 101061
02:00+24с2288100 3.9 1009108
05:00+24с248896 1.6 1009153
08:00+27сз247776 1.9 1011679
11:00+29зсз3464100 0.1 10111250
14:00+30зсз336015 0.1 10081098
17:00+28ссз24695 0.0 1009319
20:00+25с23825 0.0 101091